星链-33688 (STARLINK-33688)

导读

STARLINK-33688是美国SpaceX公司星链(Starlink)星座项目的卫星,于2025年4月6日发射入轨。星链计划旨在构建近地轨道卫星互联网,为全球偏远地区、基础设施缺失区域提供低延迟高速宽带服务,该卫星将助力星座扩容,提升全球网络覆盖范围与服务稳定性,推动卫星互联网的普及应用。

基本信息
目录编号:
63483
目录名称:
STARLINK-33688
国际标识:
2025-070Z
轨道中心:
EARTH
卫星名称:
星链-33688
卫星全名:
星链-33688 (STARLINK-33688)
卫星状态:
在轨 (已飞行516 天)
发射日期:
2025-04-06 UTC
国别 :
美国 (US)
星等 :
--
轨道信息
数据来源 国际轨道数据 AOE轨道数据
星历时间 2026-09-04T14:05:47+0800
13小时前
查看轨道信息
2026-08-29T08:00:00+0800
6天前
查看轨道信息
半长轴 6861.159km 6861.203km
偏心率 0.0000829 0.000215
轨道倾角 43.001° 43.012°
近地点辐角 200.494° 303.697°
升交点赤经 331.507° 6.839°
平近点角 159.588° 183.465°
近地点 482.453km 481.59km
远地点 483.591km 484.542km
周期 94.266分钟 94.267分钟
每日圈数 15.275892 15.275744
详细信息
固有亮度:
5
最大亮度:
2.5
卫星平台:
Starlink V1.0
覆盖范围:
全球
运营商:
太空探索技术公司
运营商所在国:
美国
制造商(研发单位):
太空探索技术公司
制造商所在国:
美国
使用方式:
暂无
卫星简介
Starlink 计划是 SpaceX 推出的全球卫星互联网项目,通过发射低轨道卫星,为全球尤其是偏远地区提供高速、低延迟的互联网服务。自 2019 年起,Starlink 已部署数千颗卫星,旨在缩小全球数字鸿沟,推动互联网普及。该项目还为军事、航空等行业提供通信支持,带来广泛经济效益。
2D轨道图
3D轨道图
轨道高度分析图
轨道倾角分析图
轨道综合分析图
查看轨道综合分析图
交会数据列表
事件ID 空间交会对象 最接近时刻(TCA) 交会距离 交会风险概率(CRP) 交会风险指数(CRI) 操作
CDM_260907-021405-961406-348321
2026-09-07T
02:14:09+0000
0.873 km
远距离
3.194609E-5 中风险 0.65
CDM_260907-034805-961406-348321
2026-09-07T
03:48:18+0000
1.574 km
极远距离
4.326335E-6 低风险 0.48
CDM_260906-033806-261906-348322
IRIS-F3 (62619)
2026-09-06T
03:38:58+0000
2.654 km
极远距离
1.032466E-6 低风险 0.35
CDM_260907-072405-931706-348321
2026-09-07T
07:24:33+0000
2.477 km
极远距离
6.773459E-7 极低风险 0.32